This is the latest recevied weather packets stored in our database for station/object WX7FGZ-7. If no packets are shown the sender has not sent any weather packets the latest 10 day(s).
| Time | Temp. | Humidity | Pressure | Rain* | Wind** | Luminosity | Snow |
|---|---|---|---|---|---|---|---|
| 1777900285 | 11.11° C | 57% | 1015 hPa | 0 mm | - | - | - |
| 1777899849 | 9.44° C | 61% | 1014.9 hPa | 0 mm | - | - | - |
| 1777899764 | 9.44° C | 61% | 1014.9 hPa | 0 mm | - | - | - |
| 1777899667 | 9.44° C | 61% | 1014.9 hPa | 0 mm | - | - | - |
| 1777899595 | 9.44° C | 64% | 1014.8 hPa | 0 mm | - | - | - |
| 1777899446 | 9.44° C | 64% | 1014.8 hPa | 0 mm | - | - | - |
| 1777899389 | 9.44° C | 64% | 1014.8 hPa | 0 mm | - | - | - |
| 1777899114 | 9.44° C | 64% | 1014.8 hPa | 0 mm | - | - | - |
| 1777898767 | 9.44° C | 64% | 1014.8 hPa | 0 mm | - | - | - |
| 1777898443 | 9.44° C | 64% | 1014.9 hPa | 0 mm | - | - | - |
| 1777898389 | 9.44° C | 64% | 1014.9 hPa | 0 mm | - | - | - |
| 1777898167 | 9.44° C | 64% | 1014.9 hPa | 0 mm | - | - | - |
| 1777897983 | 10° C | 63% | 1015 hPa | 0 mm | - | - | - |
| 1777897867 | 10° C | 63% | 1015 hPa | 0 mm | - | - | - |
| 1777897720 | 10° C | 63% | 1014.8 hPa | 0 mm | - | - | - |
| 1777897567 | 10° C | 63% | 1014.8 hPa | 0 mm | - | - | - |
| 1777897429 | 10° C | 63% | 1014.5 hPa | 0 mm | - | - | - |
| 1777897318 | 10° C | 63% | 1014.5 hPa | 0 mm | - | - | - |
| 1777897267 | 10° C | 63% | 1014.5 hPa | 0 mm | - | - | - |
| 1777896996 | 9.44° C | 65% | 1014.4 hPa | 0 mm | - | - | - |
| 1777896943 | 9.44° C | 66% | 1014.4 hPa | 0 mm | - | - | - |
| 1777896850 | 9.44° C | 66% | 1014.4 hPa | 0 mm | - | - | - |
| 1777896667 | 9.44° C | 66% | 1014.4 hPa | 0 mm | - | - | - |
| 1777896067 | 9.44° C | 67% | 1014.6 hPa | 0 mm | - | - | - |
| 1777896010 | 9.44° C | 68% | 1014.5 hPa | 0 mm | - | - | - |
* Rain latest hour (hover to see other rain measurements)
** Current wind speed in m/s (hover to see current wind gust speed)